Location: Aciu?a
(46.2833°N, 22.4500°E)
Time: 12:21:35
(UTC+00:00)

NOSS 2-3 (C) - Pass Details

Date: 25 October 2021
Orbit: 541 x 1670 km, 63.3° (Epoch: 04 December)

Event Time Altitude Azimuth Distance (km) Brightness Sun altitude
Rises 15:48:35 0° 193° (SSW) 2,683 7.2 -4.5°
Reaches altitude 10° 15:50:48 10° 184° (S) 1,811 6.2 -4.9°
Maximum altitude 15:54:25 34° 118° (ESE) 957 4.2 -5.5°
Drops below altitude 10° 15:58:29 10° 53° (NE) 2,061 5.7 -6.2°
Enters shadow 16:00:11 - 47° (NE) 2,727 6.3 -6.5°
